Location: Bailleul
(50.3375°N, 2.8513°E)
Time: 05:57:14
(UTC+00:00)

Cosmos 2016 Rocket - Pass Details

Date: 30 October 2021
Orbit: 946 x 1001 km, 83.0° (Epoch: 26 November)

Event Time Altitude Azimuth Distance (km) Brightness Sun altitude
Rises 19:56:17 0° 211° (SSW) 3,642 7.1 -33.4°
Reaches altitude 10° 19:58:56 10° 218° (SW) 2,692 6.5 -33.8°
Maximum altitude 20:04:44 42° 288° (WNW) 1,333 5.0 -34.7°
Drops below altitude 10° 20:10:32 10° 359° (N) 2,684 6.5 -35.6°
Sets 20:13:11 0° 6° (N) 3,631 7.2 -35.9°
